Location: Newark
(43.4000°N, 45.7167°E)
Time: 04:06:55
(UTC+00:00)

Tiangong 2 - Visible Passes

Search period start: 19 March 2019 00:00
Search period end: 29 March 2019 00:00
Orbit: 379 x 390 km, 42.8° (Epoch: 18 March)

Date Brightness Start Highest point End Pass type
(mag) Time Alt. Az. Time Alt. Az. Time Alt. Az.
19 Mar 0.9 01:23:52 76° SSW 01:23:57 77° S 01:27:08 10° E visible
20 Mar 4.2 00:27:11 14° E 00:27:11 14° E 00:27:41 10° E visible
20 Mar 1.5 01:59:24 21° W 02:01:09 46° SSW 02:04:13 10° ESE visible
21 Mar 2.3 01:02:46 37° SE 01:02:46 37° SE 01:04:53 10° ESE visible
22 Mar 2.0 01:38:28 30° SW 01:38:50 31° SSW 01:41:41 10° SE visible
23 Mar 3.9 00:42:03 13° SE 00:42:03 13° SE 00:42:29 10° ESE visible
23 Mar 3.3 02:14:18 10° WSW 02:15:41 13° SSW 02:17:08 10° S visible
24 Mar 3.4 01:18:01 14° S 01:18:01 14° S 01:18:50 10° SSE visible
